Location: Izdebno
(52.6670°N, 16.2170°E)
Time: 03:19:24
(UTC+02:00)

Transit 2A - Pass Details

Date: 28 February 2024
Orbit: 596 x 956 km, 66.7° (Epoch: 21 April)

Event Time Altitude Azimuth Distance (km) Brightness Sun altitude
Rises 04:17:45 0° 314° (NW) 3,008 - -23.0°
Reaches altitude 10° 04:20:13 10° 303° (WNW) 2,141 - -22.6°
Maximum altitude 04:24:20 28° 245° (WSW) 1,347 - -22.0°
Drops below altitude 10° 04:28:47 10° 187° (S) 2,325 - -21.4°
Exits shadow 04:29:04 - 186° (S) 2,418 8.4 -21.3°
Sets 04:31:35 0° 177° (S) 3,316 9.2 -21.0°
